• In Hungary
  • List of Countries
  • For 7 days
  • Water Temperature
  • Satellite Maps
  • Weather Map
  • News
  • Weather Widgets
  • user-avatar
    Login

    Hourly Weather Pinczata

    Today, 24 October, Tuesday

    Time Temperature Precipitation Wind Pressure Humidity
    00:00 +7°C° 0 mm 2 mps 759 mmHg 92%
    01:00 +6°C° 0 mm 2 mps 759 mmHg 92%
    02:00 +6°C° 0 mm 2 mps 760 mmHg 92%
    03:00 +6°C° 0 mm 2 mps 760 mmHg 92%
    04:00 +5°C° 0 mm 2 mps 760 mmHg 92%
    05:00 +5°C° 0 mm 2 mps 761 mmHg 91%
    06:00 +5°C° 0 mm 2 mps 761 mmHg 90%
    07:00 +5°C° 0 mm 2 mps 762 mmHg 89%
    08:00 +6°C° 0 mm 2 mps 762 mmHg 85%
    09:00 +7°C° 0 mm 2 mps 762 mmHg 81%
    10:00 +8°C° 0 mm 2 mps 763 mmHg 76%
    11:00 +9°C° 0 mm 2 mps 763 mmHg 73%
    12:00 +9°C° 0 mm 2 mps 763 mmHg 70%
    13:00 +10°C° 0 mm 2 mps 763 mmHg 67%
    14:00 +10°C° 0 mm 2 mps 763 mmHg 69%
    15:00 +9°C° 0 mm 2 mps 763 mmHg 72%
    16:00 +9°C° 0 mm 2 mps 763 mmHg 74%
    17:00 +8°C° 0 mm 2 mps 763 mmHg 76%
    18:00 +8°C° 0 mm 2 mps 763 mmHg 79%
    19:00 +7°C° 0 mm 3 mps 764 mmHg 81%
    20:00 +7°C° 0 mm 3 mps 763 mmHg 81%
    21:00 +5°C° 0 mm 3 mps 763 mmHg 81%
    22:00 +5°C° 0 mm 4 mps 763 mmHg 81%
    23:00 +5°C° 0 mm 4 mps 763 mmHg 82%

    Tomorrow, 25 October, Wednesday

    Time Temperature Precipitation Wind Pressure Humidity
    00:00 +5°C° 0 mm 4 mps 763 mmHg 82%
    01:00 +5°C° 0 mm 4 mps 763 mmHg 82%
    02:00 +5°C° 0 mm 4 mps 763 mmHg 82%
    03:00 +6°C° 0 mm 5 mps 762 mmHg 81%
    04:00 +6°C° 0 mm 5 mps 762 mmHg 80%
    05:00 +6°C° 0.2 mm 5 mps 762 mmHg 80%
    06:00 +6°C° 0.2 mm 5 mps 761 mmHg 80%
    07:00 +5°C° 0.2 mm 6 mps 761 mmHg 80%
    08:00 +5°C° 1.1 mm 6 mps 761 mmHg 80%
    09:00 +5°C° 1.1 mm 6 mps 760 mmHg 81%
    10:00 +6°C° 1.1 mm 7 mps 760 mmHg 82%
    11:00 +7°C° 1.7 mm 6 mps 760 mmHg 83%
    12:00 +8°C° 1.7 mm 6 mps 759 mmHg 84%
    13:00 +8°C° 1.7 mm 6 mps 759 mmHg 86%
    14:00 +9°C° 0.1 mm 6 mps 758 mmHg 87%
    15:00 +10°C° 0.1 mm 5 mps 758 mmHg 88%
    16:00 +12°C° 0.1 mm 5 mps 758 mmHg 89%
    17:00 +12°C° 0.1 mm 5 mps 758 mmHg 89%
    18:00 +12°C° 0.1 mm 5 mps 758 mmHg 89%
    19:00 +13°C° 0.1 mm 6 mps 758 mmHg 89%
    20:00 +13°C° 0.2 mm 5 mps 758 mmHg 89%
    21:00 +13°C° 0.2 mm 5 mps 758 mmHg 90%
    22:00 +13°C° 0.2 mm 5 mps 758 mmHg 90%
    23:00 +12°C° 0 mm 5 mps 759 mmHg 91%

    Day after tomorrow, 26 October, Thursday

    Time Temperature Precipitation Wind Pressure Humidity
    00:00 +11°C° 0 mm 4 mps 759 mmHg 91%
    01:00 +11°C° 0 mm 4 mps 759 mmHg 92%
    02:00 +10°C° 0 mm 4 mps 759 mmHg 93%
    03:00 +10°C° 0 mm 4 mps 759 mmHg 94%
    04:00 +9°C° 0 mm 3 mps 759 mmHg 95%
    05:00 +8°C° 0 mm 4 mps 759 mmHg 95%
    06:00 +8°C° 0 mm 4 mps 760 mmHg 95%
    07:00 +8°C° 0 mm 4 mps 760 mmHg 95%
    08:00 +10°C° 0 mm 4 mps 760 mmHg 91%
    09:00 +11°C° 0 mm 4 mps 760 mmHg 86%
    10:00 +12°C° 0 mm 5 mps 760 mmHg 82%
    11:00 +12°C° 0 mm 5 mps 759 mmHg 80%
    12:00 +12°C° 0 mm 5 mps 759 mmHg 78%
    13:00 +13°C° 0 mm 5 mps 759 mmHg 76%
    14:00 +12°C° 0 mm 5 mps 759 mmHg 77%
    15:00 +12°C° 0 mm 4 mps 758 mmHg 78%
    16:00 +12°C° 0 mm 3 mps 758 mmHg 79%
    17:00 +11°C° 0 mm 3 mps 758 mmHg 82%
    18:00 +11°C° 0 mm 3 mps 758 mmHg 84%
    19:00 +10°C° 0 mm 3 mps 757 mmHg 87%
    20:00 +10°C° 0 mm 3 mps 757 mmHg 88%
    21:00 +10°C° 0 mm 3 mps 757 mmHg 89%
    22:00 +10°C° 0 mm 3 mps 756 mmHg 90%
    23:00 +10°C° 0.1 mm 3 mps 756 mmHg 91%

    27 October, Friday

    Time Temperature Precipitation Wind Pressure Humidity
    00:00 +10°C° 0.1 mm 3 mps 755 mmHg 93%
    01:00 +10°C° 0.1 mm 3 mps 755 mmHg 94%
    02:00 +10°C° 0 mm 3 mps 754 mmHg 94%
    03:00 +10°C° 0 mm 3 mps 754 mmHg 95%
    04:00 +10°C° 0 mm 4 mps 753 mmHg 95%
    05:00 +10°C° 0 mm 4 mps 753 mmHg 94%
    06:00 +10°C° 0 mm 4 mps 752 mmHg 93%
    07:00 +10°C° 0 mm 4 mps 752 mmHg 91%
    08:00 +10°C° 0 mm 4 mps 752 mmHg 87%
    09:00 +10°C° 0 mm 5 mps 751 mmHg 82%
    10:00 +10°C° 0 mm 5 mps 751 mmHg 78%
    11:00 +10°C° 0.1 mm 5 mps 751 mmHg 76%
    12:00 +10°C° 0.1 mm 5 mps 750 mmHg 73%
    13:00 +10°C° 0.1 mm 6 mps 750 mmHg 71%
    14:00 +10°C° 0.1 mm 5 mps 749 mmHg 73%
    15:00 +9°C° 0.1 mm 5 mps 749 mmHg 75%
    16:00 +10°C° 0.1 mm 4 mps 749 mmHg 76%
    17:00 +8°C° 0.1 mm 4 mps 748 mmHg 79%
    18:00 +8°C° 0.1 mm 5 mps 748 mmHg 81%
    19:00 +7°C° 0.1 mm 5 mps 748 mmHg 84%
    20:00 +7°C° 0.1 mm 5 mps 748 mmHg 84%
    21:00 +7°C° 0.1 mm 6 mps 748 mmHg 84%
    22:00 +7°C° 0.1 mm 6 mps 747 mmHg 85%
    23:00 +6°C° 0.4 mm 7 mps 747 mmHg 84%

    28 October, Saturday

    Time Temperature Precipitation Wind Pressure Humidity
    00:00 +8°C° 0.4 mm 7 mps 747 mmHg 84%
    01:00 +8°C° 0.4 mm 7 mps 747 mmHg 84%
    02:00 +8°C° 0.1 mm 7 mps 747 mmHg 85%
    03:00 +7°C° 0.1 mm 6 mps 748 mmHg 86%
    04:00 +7°C° 0.1 mm 6 mps 748 mmHg 87%
    05:00 +6°C° 0 mm 5 mps 748 mmHg 88%
    06:00 +6°C° 0 mm 5 mps 748 mmHg 89%
    07:00 +6°C° 0 mm 5 mps 748 mmHg 90%
    08:00 +6°C° 0 mm 5 mps 748 mmHg 86%
    09:00 +7°C° 0 mm 6 mps 747 mmHg 81%
    10:00 +8°C° 0 mm 6 mps 747 mmHg 77%
    11:00 +8°C° 0.1 mm 6 mps 746 mmHg 76%
    12:00 +8°C° 0.1 mm 6 mps 745 mmHg 76%
    13:00 +8°C° 0.1 mm 6 mps 745 mmHg 75%
    14:00 +8°C° 0.5 mm 6 mps 744 mmHg 77%
    15:00 +7°C° 0.5 mm 6 mps 743 mmHg 80%
    16:00 +7°C° 0.5 mm 6 mps 742 mmHg 82%
    17:00 +7°C° 0.2 mm 6 mps 742 mmHg 82%
    18:00 +7°C° 0.2 mm 6 mps 741 mmHg 82%
    19:00 +7°C° 0.2 mm 6 mps 741 mmHg 83%
    20:00 +6°C° 0.1 mm 5 mps 740 mmHg 83%
    21:00 +6°C° 0.1 mm 5 mps 739 mmHg 83%
    22:00 +6°C° 0.1 mm 5 mps 739 mmHg 84%
    23:00 +6°C° 0.1 mm 5 mps 739 mmHg 84%

    29 October, Sunday

    Time Temperature Precipitation Wind Pressure Humidity
    00:00 +6°C° 0.1 mm 5 mps 738 mmHg 85%
    01:00 +6°C° 0.1 mm 4 mps 738 mmHg 85%
    02:00 +6°C° 0 mm 4 mps 738 mmHg 86%
    03:00 +7°C° 0 mm 3 mps 738 mmHg 87%
    04:00 +7°C° 0 mm 3 mps 738 mmHg 87%
    05:00 +7°C° 0 mm 2 mps 738 mmHg 88%
    06:00 +7°C° 0 mm 2 mps 738 mmHg 89%
    07:00 +7°C° 0 mm 1 mps 739 mmHg 90%
    08:00 +8°C° 0 mm 1 mps 739 mmHg 86%
    09:00 +9°C° 0 mm 1 mps 740 mmHg 82%
    10:00 +10°C° 0 mm 1 mps 740 mmHg 78%
    11:00 +10°C° 0 mm 1 mps 740 mmHg 75%
    12:00 +11°C° 0 mm 1 mps 741 mmHg 71%
    13:00 +12°C° 0 mm 1 mps 741 mmHg 68%
    14:00 +11°C° 0 mm 1 mps 742 mmHg 70%
    15:00 +11°C° 0 mm 1 mps 742 mmHg 72%
    16:00 +10°C° 0 mm 1 mps 742 mmHg 74%
    17:00 +10°C° 0 mm 1 mps 743 mmHg 77%
    18:00 +9°C° 0 mm 1 mps 744 mmHg 80%
    19:00 +8°C° 0 mm 1 mps 745 mmHg 83%
    20:00 +7°C° 0 mm 2 mps 745 mmHg 85%
    21:00 +7°C° 0 mm 2 mps 746 mmHg 87%
    22:00 +7°C° 0 mm 3 mps 746 mmHg 89%
    23:00 +7°C° 0 mm 3 mps 747 mmHg 88%

    30 October, Monday

    Time Temperature Precipitation Wind Pressure Humidity
    00:00 +6°C° 0 mm 4 mps 747 mmHg 87%
    01:00 +6°C° 0 mm 4 mps 748 mmHg 86%
    02:00 +5°C° 0 mm 4 mps 748 mmHg 86%
    03:00 +5°C° 0 mm 4 mps 749 mmHg 87%
    04:00 +5°C° 0 mm 4 mps 749 mmHg 87%
    05:00 +4°C° 0 mm 4 mps 749 mmHg 89%
    06:00 +4°C° 0 mm 3 mps 750 mmHg 90%
    07:00 +3°C° 0 mm 3 mps 750 mmHg 92%
    08:00 +4°C° 0 mm 3 mps 750 mmHg 86%
    09:00 +5°C° 0 mm 3 mps 750 mmHg 80%
    10:00 +6°C° 0 mm 4 mps 750 mmHg 74%
    11:00 +7°C° 0 mm 4 mps 750 mmHg 72%
    12:00 +8°C° 0 mm 4 mps 750 mmHg 70%
    13:00 +8°C° 0 mm 5 mps 750 mmHg 68%
    14:00 +8°C° 0 mm 5 mps 750 mmHg 71%
    15:00 +7°C° 0 mm 5 mps 749 mmHg 74%
    16:00 +7°C° 0 mm 5 mps 749 mmHg 76%
    17:00 +7°C° 0 mm 5 mps 749 mmHg 78%
    18:00 +7°C° 0 mm 5 mps 749 mmHg 80%
    19:00 +7°C° 0 mm 5 mps 749 mmHg 82%
    20:00 +7°C° 0.1 mm 5 mps 748 mmHg 83%
    21:00 +7°C° 0.1 mm 6 mps 748 mmHg 84%
    22:00 +7°C° 0.1 mm 6 mps 747 mmHg 85%
    23:00 +7°C° 0.1 mm 6 mps 747 mmHg 84%
    Show more